TimeEST,TemperatureF,Dew PointF,Humidity,Sea Level PressureIn,VisibilityMPH,Wind Direction,Wind SpeedMPH,Gust SpeedMPH,PrecipitationIn,Events,Conditions,WindDirDegrees,DateUTC
12:15 AM,30.9,16.2,54,30.24,10.0,WSW,23.0,32.2,N/A,,Clear,240,2013-11-25 05:15:00
12:35 AM,30.9,15.8,54,30.23,10.0,SW,18.4,33.4,N/A,,Clear,230,2013-11-25 05:35:00
12:55 AM,30.9,15.3,52,30.22,10.0,SW,24.2,35.7,N/A,,Clear,230,2013-11-25 05:55:00
1:14 AM,30.9,14.0,50,30.21,10.0,SW,21.9,35.7,N/A,,Clear,220,2013-11-25 06:14:00
1:35 AM,30.9,14.4,50,30.21,10.0,SW,23.0,35.7,N/A,,Clear,230,2013-11-25 06:35:00
1:55 AM,30.9,12.7,47,30.20,10.0,WSW,24.2,35.7,N/A,,Clear,240,2013-11-25 06:55:00
2:15 AM,30.9,14.5,51,30.19,10.0,SW,25.3,34.5,N/A,,Clear,220,2013-11-25 07:15:00
2:35 AM,31.1,14.4,50,30.19,10.0,SW,20.7,32.2,N/A,,Clear,220,2013-11-25 07:35:00
2:55 AM,31.6,14.7,50,30.17,10.0,SW,21.9,28.8,N/A,,Clear,220,2013-11-25 07:55:00
3:15 AM,32.0,14.9,49,30.17,10.0,SW,27.6,34.5,N/A,,Clear,230,2013-11-25 08:15:00
3:35 AM,32.0,15.3,50,30.17,10.0,SW,24.2,29.9,N/A,,Clear,220,2013-11-25 08:35:00
3:55 AM,31.1,13.8,49,30.16,10.0,SW,25.3,33.4,N/A,,Clear,220,2013-11-25 08:55:00
4:15 AM,31.5,13.6,48,30.14,10.0,SW,24.2,33.4,N/A,,Clear,230,2013-11-25 09:15:00
4:35 AM,32.0,13.6,47,30.13,10.0,SW,26.5,34.5,N/A,,Mostly Cloudy,230,2013-11-25 09:35:00
4:54 AM,32.0,14.5,49,30.12,10.0,SW,25.3,33.4,N/A,,Mostly Cloudy,230,2013-11-25 09:54:00
5:15 AM,32.0,14.5,49,30.11,10.0,SW,19.6,34.5,N/A,,Scattered Clouds,220,2013-11-25 10:15:00
5:35 AM,32.0,13.3,46,30.10,10.0,SW,25.3,38.0,N/A,,Clear,230,2013-11-25 10:35:00
5:55 AM,32.2,14.9,49,30.08,10.0,SW,24.2,35.7,N/A,,Clear,220,2013-11-25 10:55:00
6:15 AM,32.0,14.9,49,30.07,10.0,SW,27.6,34.5,N/A,,Scattered Clouds,230,2013-11-25 11:15:00
6:35 AM,32.0,14.2,48,30.06,10.0,SW,24.2,33.4,N/A,,Mostly Cloudy,230,2013-11-25 11:35:00
6:55 AM,33.1,15.6,49,30.05,10.0,SW,23.0,40.3,N/A,,Mostly Cloudy,220,2013-11-25 11:55:00
7:15 AM,33.1,16.7,51,30.04,10.0,SW,26.5,36.8,N/A,,Overcast,230,2013-11-25 12:15:00
7:34 AM,33.1,18.0,54,30.04,10.0,SW,20.7,31.1,N/A,,Overcast,220,2013-11-25 12:34:00
7:55 AM,33.1,17.2,52,30.04,10.0,SW,25.3,35.7,N/A,,Overcast,230,2013-11-25 12:55:00
8:15 AM,33.1,18.1,54,30.04,5.0,SW,23.0,35.7,N/A,Snow,Light Snow,230,2013-11-25 13:15:00
8:35 AM,33.1,18.7,56,30.04,5.0,WSW,28.8,36.8,N/A,Snow,Light Snow,240,2013-11-25 13:35:00
8:55 AM,30.9,25.2,79,30.04,0.8,WSW,28.8,39.1,N/A,Snow,Light Snow,240,2013-11-25 13:55:00
9:15 AM,30.9,26.4,83,30.04,0.5,WSW,24.2,38.0,N/A,Snow,Snow,240,2013-11-25 14:15:00
9:35 AM,30.9,27.3,86,30.04,0.2,SW,25.3,33.4,N/A,Snow,Snow,230,2013-11-25 14:35:00
9:55 AM,30.9,27.5,87,30.04,0.2,SW,23.0,34.5,N/A,Snow,Snow,230,2013-11-25 14:55:00
10:15 AM,30.9,27.5,87,30.03,0.5,WSW,26.5,36.8,N/A,Snow,Snow,240,2013-11-25 15:15:00
10:35 AM,30.9,27.5,87,30.02,0.5,SW,24.2,33.4,N/A,Snow,Light Snow,230,2013-11-25 15:35:00
10:55 AM,30.9,27.3,86,30.01,1.0,SW,31.1,40.3,N/A,Snow,Light Snow,230,2013-11-25 15:55:00
11:15 AM,31.5,27.3,85,29.99,1.2,SW,24.2,35.7,N/A,Snow,Light Snow,230,2013-11-25 16:15:00
11:35 AM,32.0,27.7,84,29.98,1.5,SW,24.2,40.3,N/A,Snow,Light Snow,230,2013-11-25 16:35:00
11:55 AM,31.8,27.7,85,29.99,1.0,SW,24.2,35.7,N/A,Snow,Light Snow,230,2013-11-25 16:55:00
12:15 PM,32.0,27.9,85,29.99,2.5,WSW,24.2,32.2,N/A,Snow,Light Snow,240,2013-11-25 17:15:00
12:35 PM,32.0,27.5,83,29.98,2.0,WSW,20.7,32.2,N/A,Snow,Light Snow,240,2013-11-25 17:35:00
12:55 PM,32.0,27.3,83,29.97,2.0,WSW,21.9,35.7,N/A,Snow,Light Snow,240,2013-11-25 17:55:00
1:15 PM,32.0,27.1,82,29.97,3.0,WSW,20.7,28.8,N/A,Snow,Light Snow,240,2013-11-25 18:15:00
1:35 PM,32.4,27.3,82,29.97,7.0,WSW,20.7,27.6,N/A,,Overcast,250,2013-11-25 18:35:00
1:55 PM,32.4,26.6,79,29.96,7.0,WSW,20.7,27.6,N/A,,Overcast,250,2013-11-25 18:55:00
2:15 PM,33.1,27.1,79,29.96,10.0,WSW,20.7,27.6,N/A,,Overcast,250,2013-11-25 19:15:00
2:35 PM,33.1,26.8,78,29.96,10.0,WSW,16.1,26.5,N/A,,Overcast,250,2013-11-25 19:35:00
2:55 PM,33.1,27.1,79,29.95,10.0,West,15.0,24.2,N/A,,Overcast,260,2013-11-25 19:55:00
3:15 PM,33.1,27.1,79,29.95,10.0,WSW,15.0,23.0,N/A,,Overcast,250,2013-11-25 20:15:00
3:35 PM,33.1,27.3,79,29.95,10.0,West,13.8,27.6,N/A,,Overcast,260,2013-11-25 20:35:00
3:55 PM,33.1,27.1,79,29.95,10.0,WSW,18.4,24.2,N/A,,Overcast,240,2013-11-25 20:55:00
4:15 PM,33.4,27.7,79,29.96,10.0,WSW,15.0,24.2,N/A,,Overcast,240,2013-11-25 21:15:00
4:35 PM,35.8,30.0,80,29.97,10.0,West,13.8,21.9,N/A,,Overcast,260,2013-11-25 21:35:00
4:55 PM,35.8,29.7,78,29.97,10.0,WSW,17.3,24.2,N/A,,Overcast,250,2013-11-25 21:55:00
5:15 PM,35.8,29.7,78,29.97,10.0,West,12.7,20.7,N/A,,Overcast,260,2013-11-25 22:15:00
5:35 PM,35.8,29.3,77,29.97,10.0,WSW,15.0,19.6,N/A,,Overcast,250,2013-11-25 22:35:00
5:55 PM,35.8,29.3,77,29.97,10.0,WSW,10.4,17.3,N/A,,Overcast,250,2013-11-25 22:55:00
6:15 PM,35.8,29.1,77,29.98,10.0,West,11.5,21.9,N/A,,Overcast,260,2013-11-25 23:15:00
6:34 PM,35.8,29.1,77,29.99,10.0,West,12.7,18.4,N/A,,Overcast,260,2013-11-25 23:34:00
6:55 PM,35.8,29.1,77,30.00,10.0,West,10.4,17.3,N/A,,Overcast,260,2013-11-25 23:55:00
7:15 PM,35.8,28.9,76,30.00,10.0,West,13.8,19.6,N/A,,Overcast,260,2013-11-26 00:15:00
7:34 PM,35.8,28.6,75,30.00,10.0,West,11.5,17.3,N/A,,Overcast,260,2013-11-26 00:34:00
7:55 PM,35.8,28.6,75,30.00,10.0,West,8.1,16.1,N/A,,Overcast,270,2013-11-26 00:55:00
8:15 PM,35.8,28.0,73,30.00,10.0,West,10.4,-,N/A,,Overcast,260,2013-11-26 01:15:00
8:34 PM,35.8,27.7,72,30.00,10.0,West,5.8,-,N/A,,Overcast,270,2013-11-26 01:34:00
8:55 PM,35.8,28.0,73,30.00,10.0,West,9.2,-,N/A,,Overcast,260,2013-11-26 01:55:00
9:15 PM,35.8,28.4,75,29.99,10.0,WSW,9.2,-,N/A,,Mostly Cloudy,250,2013-11-26 02:15:00
9:35 PM,35.8,28.9,76,29.99,10.0,West,9.2,-,N/A,,Overcast,260,2013-11-26 02:35:00
9:55 PM,35.8,29.3,77,29.99,10.0,West,9.2,17.3,N/A,,Overcast,260,2013-11-26 02:55:00
10:15 PM,35.8,29.3,77,29.99,10.0,WSW,9.2,19.6,N/A,,Overcast,250,2013-11-26 03:15:00
10:35 PM,35.8,29.7,78,29.98,10.0,WSW,13.8,17.3,N/A,,Overcast,240,2013-11-26 03:35:00
10:55 PM,35.8,29.7,78,29.98,10.0,WSW,12.7,18.4,N/A,,Overcast,250,2013-11-26 03:55:00
11:15 PM,35.8,29.7,78,29.97,10.0,WSW,10.4,18.4,N/A,,Overcast,250,2013-11-26 04:15:00
11:35 PM,35.8,29.8,79,29.97,10.0,WSW,10.4,19.6,N/A,,Overcast,250,2013-11-26 04:35:00
11:55 PM,35.8,30.6,81,29.97,10.0,WSW,12.7,20.7,N/A,,Overcast,250,2013-11-26 04:55:00